| time (UTC) | temp F | wind direction | speed MPH | gust MPH | rain 1hr in | rain 24hr in | rain mn in | humidity % | barometer mb |
| 20260510171038 | 95 | 87 | 0.0 | 2.0 | 0.00 | 0.00 | 0.00 | 15 | 1011.0 |
| 20260510170534 | 97 | 90 | 3.0 | 3.0 | 0.00 | 0.00 | 0.00 | 14 | 1011.3 |
| 20260510170031 | 97 | 117 | 0.0 | 2.0 | 0.00 | 0.00 | 0.00 | 15 | 1011.0 |
| 20260510165527 | 98 | 68 | 1.0 | 2.0 | 0.00 | 0.00 | 0.00 | 15 | 1011.0 |
| 20260510165023 | 98 | 98 | 0.0 | 2.0 | 0.00 | 0.00 | 0.00 | 15 | 1011.4 |
| 20260510164520 | 96 | 66 | 2.0 | 2.0 | 0.00 | 0.00 | 0.00 | 15 | 1011.4 |
| 20260510164017 | 96 | 355 | 0.0 | 2.0 | 0.00 | 0.00 | 0.00 | 17 | 1011.3 |
| 20260510163512 | 93 | 88 | 2.0 | 2.0 | 0.00 | 0.00 | 0.00 | 15 | 1011.0 |
| 20260510163008 | 93 | 72 | 0.0 | 3.0 | 0.00 | 0.00 | 0.00 | 18 | 1010.8 |
| 20260510162504 | 93 | 66 | 0.0 | 2.0 | 0.00 | 0.00 | 0.00 | 16 | 1011.0 |
| 20260510162000 | 94 | 101 | 3.0 | 3.0 | 0.00 | 0.00 | 0.00 | 15 | 1010.9 |
| 20260510161456 | 94 | 119 | 2.0 | 3.0 | 0.00 | 0.00 | 0.00 | 15 | 1010.9 |
| 20260510160954 | 96 | 78 | 0.0 | 1.0 | 0.00 | 0.00 | 0.00 | 22 | 1011.0 |
| 20260510160450 | 95 | 59 | 0.0 | 1.0 | 0.00 | 0.00 | 0.00 | 18 | 1011.0 |
| 20260510155943 | 94 | 77 | 0.0 | 2.0 | 0.00 | 0.00 | 0.00 | 16 | 1010.9 |
| 20260510155440 | 92 | 54 | 1.0 | 2.0 | 0.00 | 0.00 | 0.00 | 17 | 1011.2 |
| 20260510154936 | 92 | 186 | 0.0 | 3.0 | 0.00 | 0.00 | 0.00 | 18 | 1011.3 |
| 20260510154427 | 94 | 246 | 0.0 | 1.0 | 0.00 | 0.00 | 0.00 | 16 | 1010.9 |
| 20260510153925 | 90 | 112 | 0.0 | 2.0 | 0.00 | 0.00 | 0.00 | 18 | 1010.9 |
| 20260510153423 | 90 | 116 | 1.0 | 2.0 | 0.00 | 0.00 | 0.00 | 18 | 1010.9 |
| 20260510152919 | 91 | 49 | 0.0 | 1.0 | 0.00 | 0.00 | 0.00 | 17 | 1010.9 |
| 20260510152417 | 89 | 67 | 0.0 | 1.0 | 0.00 | 0.00 | 0.00 | 18 | 1010.7 |
| 20260510151913 | 88 | 128 | 1.0 | 3.0 | 0.00 | 0.00 | 0.00 | 20 | 1010.9 |
| 20260510151411 | 89 | 91 | 0.0 | 2.0 | 0.00 | 0.00 | 0.00 | 20 | 1011.2 |
| 20260510150907 | 89 | 59 | 0.0 | 2.0 | 0.00 | 0.00 | 0.00 | 20 | 1011.0 |
| 20260510150402 | 89 | 97 | 1.0 | 2.0 | 0.00 | 0.00 | 0.00 | 21 | 1010.9 |
| 20260510145859 | 88 | 3 | 0.0 | 1.0 | 0.00 | 0.00 | 0.00 | 22 | 1010.8 |
| 20260510145355 | 86 | 104 | 0.0 | 2.0 | 0.00 | 0.00 | 0.00 | 21 | 1010.9 |
| 20260510144851 | 91 | 245 | 0.0 | 1.0 | 0.00 | 0.00 | 0.00 | 21 | 1010.8 |
| 20260510144349 | 89 | 81 | 0.0 | 1.0 | 0.00 | 0.00 | 0.00 | 22 | 1010.9 |
| 20260510143843 | 88 | 271 | 0.0 | 0.0 | 0.00 | 0.00 | 0.00 | 21 | 1010.9 |
| 20260510143339 | 87 | 270 | 0.0 | 0.0 | 0.00 | 0.00 | 0.00 | 22 | 1010.6 |
| 20260510142837 | 86 | 251 | 2.0 | 2.0 | 0.00 | 0.00 | 0.00 | 22 | 1010.8 |
| 20260510142333 | 84 | 163 | 1.0 | 2.0 | 0.00 | 0.00 | 0.00 | 24 | 1010.7 |
| 20260510141830 | 84 | 319 | 0.0 | 2.0 | 0.00 | 0.00 | 0.00 | 24 | 1010.7 |
| 20260510141327 | 84 | 239 | 0.0 | 2.0 | 0.00 | 0.00 | 0.00 | 23 | 1010.6 |
| 20260510140825 | 83 | 260 | 2.0 | 3.0 | 0.00 | 0.00 | 0.00 | 23 | 1010.7 |
| 20260510140320 | 83 | 305 | 0.0 | 2.0 | 0.00 | 0.00 | 0.00 | 22 | 1010.5 |
| 20260510135813 | 83 | 239 | 1.0 | 2.0 | 0.00 | 0.00 | 0.00 | 23 | 1010.4 |
| 20260510135309 | 82 | 284 | 0.0 | 0.0 | 0.00 | 0.00 | 0.00 | 23 | 1010.3 |
| 20260510134808 | 78 | 324 | 0.0 | 2.0 | 0.00 | 0.00 | 0.00 | 25 | 1010.3 |
| 20260510134304 | 74 | 312 | 0.0 | 0.0 | 0.00 | 0.00 | 0.00 | 30 | 1010.1 |
| 20260510133800 | 73 | 249 | 0.0 | 2.0 | 0.00 | 0.00 | 0.00 | 29 | 1010.4 |
| 20260510133256 | 72 | 267 | 1.0 | 1.0 | 0.00 | 0.00 | 0.00 | 30 | 1010.2 |
| 20260510132752 | 71 | 337 | 0.0 | 2.0 | 0.00 | 0.00 | 0.00 | 29 | 1009.9 |
| 20260510132250 | 70 | 266 | 1.0 | 2.0 | 0.00 | 0.00 | 0.00 | 30 | 1009.8 |
| 20260510131746 | 70 | 255 | 2.0 | 3.0 | 0.00 | 0.00 | 0.00 | 31 | 1009.8 |
| 20260510131245 | 70 | 262 | 1.0 | 2.0 | 0.00 | 0.00 | 0.00 | 31 | 1009.7 |
| 20260510130740 | 70 | 271 | 0.0 | 2.0 | 0.00 | 0.00 | 0.00 | 33 | 1009.7 |
| 20260510130238 | 70 | 237 | 0.0 | 1.0 | 0.00 | 0.00 | 0.00 | 28 | 1009.6 |
| 20260510125734 | 70 | 319 | 1.0 | 1.0 | 0.00 | 0.00 | 0.00 | 27 | 1009.7 |
| 20260510125230 | 70 | 284 | 0.0 | 1.0 | 0.00 | 0.00 | 0.00 | 27 | 1009.5 |
| 20260510124727 | 70 | 305 | 0.0 | 1.0 | 0.00 | 0.00 | 0.00 | 27 | 1009.4 |
| 20260510124225 | 71 | 239 | 0.0 | 0.0 | 0.00 | 0.00 | 0.00 | 27 | 1009.5 |
| 20260510123719 | 71 | 284 | 0.0 | 1.0 | 0.00 | 0.00 | 0.00 | 26 | 1009.3 |
| 20260510123216 | 71 | 45 | 0.0 | 1.0 | 0.00 | 0.00 | 0.00 | 28 | 1009.4 |
| 20260510122712 | 71 | 267 | 0.0 | 1.0 | 0.00 | 0.00 | 0.00 | 25 | 1009.3 |
| 20260510122209 | 71 | 324 | 0.0 | 1.0 | 0.00 | 0.00 | 0.00 | 26 | 1009.4 |
| 20260510121705 | 71 | 313 | 0.0 | 1.0 | 0.00 | 0.00 | 0.00 | 25 | 1009.6 |
| 20260510121203 | 71 | 309 | 1.0 | 2.0 | 0.00 | 0.00 | 0.00 | 26 | 1009.4 |
| 20260510120659 | 72 | 352 | 0.0 | 0.0 | 0.00 | 0.00 | 0.00 | 25 | 1009.4 |
| 20260510120156 | 72 | 271 | 0.0 | 1.0 | 0.00 | 0.00 | 0.00 | 25 | 1009.3 |
| 20260510115652 | 72 | 337 | 0.0 | 1.0 | 0.00 | 0.00 | 0.00 | 25 | 1009.3 |
| 20260510115150 | 73 | 245 | 0.0 | 0.0 | 0.00 | 0.00 | 0.00 | 25 | 1009.4 |
| 20260510114645 | 72 | 232 | 0.0 | 1.0 | 0.00 | 0.00 | 0.00 | 24 | 1009.3 |
| 20260510114142 | 72 | 312 | 0.0 | 0.0 | 0.00 | 0.00 | 0.00 | 24 | 1009.2 |
| 20260510113637 | 73 | 319 | 0.0 | 0.0 | 0.00 | 0.00 | 0.00 | 24 | 1009.0 |
| 20260510113134 | 73 | 298 | 0.0 | 1.0 | 0.00 | 0.00 | 0.00 | 24 | 1009.2 |
| 20260510112631 | 73 | 264 | 0.0 | 0.0 | 0.00 | 0.00 | 0.00 | 24 | 1009.2 |
| 20260510112128 | 74 | 305 | 0.0 | 0.0 | 0.00 | 0.00 | 0.00 | 24 | 1009.0 |
| 20260510111624 | 74 | 257 | 0.0 | 0.0 | 0.00 | 0.00 | 0.00 | 23 | 1009.1 |
| 20260510111120 | 74 | 319 | 0.0 | 0.0 | 0.00 | 0.00 | 0.00 | 22 | 1009.0 |
| 20260510110616 | 75 | 276 | 0.0 | 0.0 | 0.00 | 0.00 | 0.00 | 21 | 1008.8 |
| 20260510110113 | 75 | 270 | 0.0 | 0.0 | 0.00 | 0.00 | 0.00 | 21 | 1008.9 |
| 20260510105609 | 75 | 270 | 0.0 | 0.0 | 0.00 | 0.00 | 0.00 | 21 | 1009.1 |
| 20260510105103 | 76 | 331 | 0.0 | 0.0 | 0.00 | 0.00 | 0.00 | 21 | 1008.9 |
| 20260510104600 | 75 | 159 | 0.0 | 2.0 | 0.00 | 0.00 | 0.00 | 22 | 1008.9 |
| 20260510104057 | 74 | 248 | 0.0 | 0.0 | 0.00 | 0.00 | 0.00 | 23 | 1008.8 |
| 20260510103554 | 74 | 255 | 0.0 | 0.0 | 0.00 | 0.00 | 0.00 | 25 | 1008.7 |
| 20260510103050 | 74 | 313 | 0.0 | 0.0 | 0.00 | 0.00 | 0.00 | 25 | 1008.8 |
| 20260510102545 | 74 | 291 | 1.0 | 1.0 | 0.00 | 0.00 | 0.00 | 25 | 1008.8 |
| 20260510102042 | 75 | 284 | 0.0 | 1.0 | 0.00 | 0.00 | 0.00 | 24 | 1008.6 |
| 20260510101540 | 75 | 324 | 0.0 | 0.0 | 0.00 | 0.00 | 0.00 | 24 | 1008.8 |
| 20260510101038 | 75 | 78 | 1.0 | 1.0 | 0.00 | 0.00 | 0.00 | 24 | 1008.7 |
| 20260510100533 | 75 | 273 | 0.0 | 1.0 | 0.00 | 0.00 | 0.00 | 23 | 1008.6 |
| 20260510100031 | 75 | 319 | 0.0 | 0.0 | 0.00 | 0.00 | 0.00 | 23 | 1008.5 |
| 20260510095527 | 76 | 264 | 0.0 | 0.0 | 0.00 | 0.00 | 0.00 | 27 | 1008.6 |
| 20260510095026 | 76 | 314 | 0.0 | 0.0 | 0.00 | 0.00 | 0.00 | 24 | 1008.3 |
| 20260510094521 | 76 | 297 | 1.0 | 1.0 | 0.00 | 0.00 | 0.00 | 23 | 1008.4 |
| 20260510094017 | 77 | 284 | 0.0 | 0.0 | 0.00 | 0.00 | 0.00 | 24 | 1008.4 |
| 20260510093512 | 77 | 301 | 0.0 | 1.0 | 0.00 | 0.00 | 0.00 | 22 | 1008.3 |
| 20260510093009 | 77 | 276 | 0.0 | 1.0 | 0.00 | 0.00 | 0.00 | 22 | 1008.4 |
| 20260510092507 | 77 | 301 | 0.0 | 1.0 | 0.00 | 0.00 | 0.00 | 23 | 1008.2 |
| 20260510092006 | 77 | 284 | 0.0 | 1.0 | 0.00 | 0.00 | 0.00 | 22 | 1008.2 |
| 20260510091503 | 77 | 274 | 0.0 | 2.0 | 0.00 | 0.00 | 0.00 | 22 | 1008.2 |
| 20260510090959 | 77 | 262 | 0.0 | 0.0 | 0.00 | 0.00 | 0.00 | 22 | 1008.1 |
| 20260510090456 | 78 | 245 | 0.0 | 0.0 | 0.00 | 0.00 | 0.00 | 22 | 1008.2 |
| 20260510085952 | 78 | 257 | 0.0 | 0.0 | 0.00 | 0.00 | 0.00 | 23 | 1008.1 |
| 20260510085447 | 78 | 270 | 0.0 | 0.0 | 0.00 | 0.00 | 0.00 | 23 | 1008.0 |
| 20260510084943 | 78 | 257 | 0.0 | 0.0 | 0.00 | 0.00 | 0.00 | 21 | 1008.1 |
| 20260510084440 | 78 | 257 | 0.0 | 1.0 | 0.00 | 0.00 | 0.00 | 22 | 1008.0 |
| 20260510083937 | 78 | 220 | 0.0 | 0.0 | 0.00 | 0.00 | 0.00 | 20 | 1008.0 |
| 20260510083433 | 79 | 245 | 0.0 | 0.0 | 0.00 | 0.00 | 0.00 | 20 | 1008.1 |
| 20260510082928 | 80 | 104 | 0.0 | 0.0 | 0.00 | 0.00 | 0.00 | 19 | 1007.6 |
| 20260510082427 | 81 | 104 | 0.0 | 0.0 | 0.00 | 0.00 | 0.00 | 18 | 1007.8 |
| 20260510081925 | 82 | 104 | 0.0 | 0.0 | 0.00 | 0.00 | 0.00 | 18 | 1007.9 |
| 20260510081421 | 82 | 40 | 0.0 | 0.0 | 0.00 | 0.00 | 0.00 | 18 | 1007.9 |
| 20260510080918 | 82 | 64 | 0.0 | 0.0 | 0.00 | 0.00 | 0.00 | 18 | 1008.1 |
| 20260510080417 | 83 | 118 | 1.0 | 1.0 | 0.00 | 0.00 | 0.00 | 18 | 1008.1 |
| 20260510075914 | 83 | 90 | 0.0 | 0.0 | 0.00 | 0.00 | 0.00 | 18 | 1008.0 |
| 20260510075412 | 84 | 99 | 0.0 | 1.0 | 0.00 | 0.00 | 0.00 | 18 | 1007.9 |
| 20260510074908 | 84 | 76 | 0.0 | 3.0 | 0.00 | 0.00 | 0.00 | 17 | 1008.2 |
| 20260510074406 | 83 | 90 | 0.0 | 2.0 | 0.00 | 0.00 | 0.00 | 18 | 1007.9 |
| 20260510073902 | 83 | 126 | 0.0 | 2.0 | 0.00 | 0.00 | 0.00 | 17 | 1008.0 |
| 20260510073357 | 83 | 104 | 0.0 | 2.0 | 0.00 | 0.00 | 0.00 | 17 | 1007.8 |
| 20260510072854 | 83 | 90 | 0.0 | 1.0 | 0.00 | 0.00 | 0.00 | 17 | 1008.0 |
| 20260510072351 | 84 | 129 | 0.0 | 1.0 | 0.00 | 0.00 | 0.00 | 19 | 1008.0 |
| 20260510071847 | 84 | 70 | 0.0 | 1.0 | 0.00 | 0.00 | 0.00 | 18 | 1008.1 |
| 20260510071343 | 85 | 52 | 0.0 | 3.0 | 0.00 | 0.00 | 0.00 | 20 | 1007.9 |
| 20260510070842 | 85 | 109 | 1.0 | 3.0 | 0.00 | 0.00 | 0.00 | 17 | 1007.8 |
| 20260510070338 | 84 | 107 | 0.0 | 2.0 | 0.00 | 0.00 | 0.00 | 17 | 1008.0 |
| 20260510065833 | 84 | 106 | 2.0 | 3.0 | 0.00 | 0.00 | 0.00 | 17 | 1007.9 |
| 20260510065330 | 84 | 100 | 0.0 | 3.0 | 0.00 | 0.00 | 0.00 | 19 | 1008.0 |
| 20260510064827 | 84 | 126 | 0.0 | 2.0 | 0.00 | 0.00 | 0.00 | 18 | 1007.6 |
| 20260510064325 | 84 | 92 | 2.0 | 4.0 | 0.00 | 0.00 | 0.00 | 19 | 1007.8 |
| 20260510063821 | 83 | 103 | 1.0 | 2.0 | 0.00 | 0.00 | 0.00 | 21 | 1007.9 |
| 20260510063317 | 83 | 90 | 0.0 | 0.0 | 0.00 | 0.00 | 0.00 | 19 | 1007.9 |
| 20260510062814 | 84 | 84 | 1.0 | 1.0 | 0.00 | 0.00 | 0.00 | 19 | 1008.0 |
| 20260510062310 | 83 | 111 | 1.0 | 2.0 | 0.00 | 0.00 | 0.00 | 19 | 1007.8 |
| 20260510061805 | 84 | 75 | 0.0 | 3.0 | 0.00 | 0.00 | 0.00 | 19 | 1007.6 |
| 20260510061302 | 83 | 104 | 0.0 | 2.0 | 0.00 | 0.00 | 0.00 | 20 | 1007.8 |
| 20260510060758 | 83 | 115 | 0.0 | 1.0 | 0.00 | 0.00 | 0.00 | 21 | 1007.8 |
| 20260510060250 | 83 | 81 | 0.0 | 0.0 | 0.00 | 0.00 | 0.00 | 20 | 1007.9 |
| 20260510055746 | 83 | 49 | 1.0 | 2.0 | 0.00 | 0.00 | 0.00 | 21 | 1007.6 |
| 20260510055244 | 83 | 104 | 0.0 | 1.0 | 0.00 | 0.00 | 0.00 | 21 | 1007.8 |
| 20260510054744 | 82 | 77 | 0.0 | 1.0 | 0.00 | 0.00 | 0.00 | 22 | 1007.5 |
| 20260510054241 | 83 | 104 | 0.0 | 1.0 | 0.00 | 0.00 | 0.00 | 22 | 1007.6 |
| 20260510053739 | 83 | 104 | 0.0 | 0.0 | 0.00 | 0.00 | 0.00 | 21 | 1007.8 |
| 20260510053236 | 84 | 165 | 0.0 | 2.0 | 0.00 | 0.00 | 0.00 | 21 | 1007.4 |
| 20260510052732 | 84 | 78 | 0.0 | 2.0 | 0.00 | 0.00 | 0.00 | 20 | 1007.4 |
| 20260510052228 | 84 | 116 | 0.0 | 1.0 | 0.00 | 0.00 | 0.00 | 20 | 1007.6 |
| 20260510051724 | 84 | 104 | 0.0 | 1.0 | 0.00 | 0.00 | 0.00 | 20 | 1007.2 |
| 20260510051221 | 84 | 132 | 0.0 | 1.0 | 0.00 | 0.00 | 0.00 | 22 | 1007.5 |
| 20260510050718 | 84 | 92 | 0.0 | 3.0 | 0.00 | 0.00 | 0.00 | 20 | 1007.2 |
| 20260510050215 | 83 | 102 | 0.0 | 2.0 | 0.00 | 0.00 | 0.00 | 20 | 1007.4 |
| 20260510045712 | 83 | 110 | 0.0 | 1.0 | 0.00 | 0.00 | 0.00 | 20 | 1007.2 |
| 20260510045208 | 83 | 65 | 0.0 | 0.0 | 0.00 | 0.00 | 0.00 | 25 | 1007.3 |
| 20260510044704 | 83 | 134 | 0.0 | 0.0 | 0.00 | 0.00 | 0.00 | 19 | 1007.3 |
| 20260510044203 | 84 | 90 | 0.0 | 0.0 | 0.00 | 0.00 | 0.00 | 19 | 1007.2 |
| 20260510043658 | 84 | 90 | 0.0 | 0.0 | 0.00 | 0.00 | 0.00 | 19 | 1006.9 |
| 20260510043155 | 85 | 52 | 0.0 | 0.0 | 0.00 | 0.00 | 0.00 | 18 | 1007.2 |
| 20260510042652 | 86 | 52 | 0.0 | 0.0 | 0.00 | 0.00 | 0.00 | 19 | 1006.9 |
| 20260510042148 | 86 | 128 | 0.0 | 0.0 | 0.00 | 0.00 | 0.00 | 18 | 1007.0 |
| 20260510041645 | 86 | 128 | 0.0 | 1.0 | 0.00 | 0.00 | 0.00 | 18 | 1006.7 |
| 20260510041142 | 87 | 52 | 0.0 | 1.0 | 0.00 | 0.00 | 0.00 | 17 | 1006.8 |
| 20260510040640 | 88 | 64 | 0.0 | 1.0 | 0.00 | 0.00 | 0.00 | 17 | 1006.8 |
| 20260510040136 | 89 | 76 | 0.0 | 1.0 | 0.00 | 0.00 | 0.00 | 18 | 1006.8 |
| 20260510035631 | 89 | 84 | 1.0 | 2.0 | 0.00 | 0.00 | 0.00 | 17 | 1006.6 |
| 20260510035127 | 89 | 72 | 0.0 | 1.0 | 0.00 | 0.00 | 0.00 | 17 | 1006.5 |
| 20260510034624 | 89 | 77 | 0.0 | 1.0 | 0.00 | 0.00 | 0.00 | 18 | 1006.6 |
| 20260510034121 | 90 | 72 | 0.0 | 3.0 | 0.00 | 0.00 | 0.00 | 16 | 1006.5 |
| 20260510033618 | 89 | 100 | 1.0 | 2.0 | 0.00 | 0.00 | 0.00 | 16 | 1006.4 |
| 20260510033115 | 89 | 94 | 1.0 | 2.0 | 0.00 | 0.00 | 0.00 | 17 | 1006.4 |
| 20260510032611 | 90 | 52 | 0.0 | 1.0 | 0.00 | 0.00 | 0.00 | 16 | 1006.3 |
| 20260510032107 | 91 | 65 | 0.0 | 2.0 | 0.00 | 0.00 | 0.00 | 16 | 1006.3 |
| 20260510031602 | 91 | 104 | 0.0 | 2.0 | 0.00 | 0.00 | 0.00 | 16 | 1006.3 |
| 20260510031058 | 92 | 82 | 0.0 | 2.0 | 0.00 | 0.00 | 0.00 | 16 | 1006.1 |
| 20260510030554 | 92 | 98 | 2.0 | 3.0 | 0.00 | 0.00 | 0.00 | 15 | 1006.2 |
| 20260510030051 | 93 | 68 | 0.0 | 3.0 | 0.00 | 0.00 | 0.00 | 16 | 1006.1 |
| 20260510025548 | 93 | 90 | 1.0 | 2.0 | 0.00 | 0.00 | 0.00 | 15 | 1006.0 |
| 20260510025046 | 94 | 67 | 0.0 | 2.0 | 0.00 | 0.00 | 0.00 | 16 | 1005.8 |
| 20260510024542 | 95 | 78 | 2.0 | 3.0 | 0.00 | 0.00 | 0.00 | 15 | 1005.8 |
| 20260510024039 | 95 | 87 | 2.0 | 5.0 | 0.00 | 0.00 | 0.00 | 15 | 1005.8 |
| 20260510023535 | 96 | 92 | 2.0 | 4.0 | 0.00 | 0.00 | 0.00 | 15 | 1005.7 |
| 20260510023033 | 96 | 74 | 2.0 | 3.0 | 0.00 | 0.00 | 0.00 | 15 | 1005.8 |
| 20260510022532 | 96 | 80 | 2.0 | 4.0 | 0.00 | 0.00 | 0.00 | 15 | 1005.8 |
| 20260510022032 | 97 | 102 | 0.0 | 5.0 | 0.00 | 0.00 | 0.00 | 14 | 1006.0 |
| 20260510021528 | 97 | 108 | 3.0 | 4.0 | 0.00 | 0.00 | 0.00 | 14 | 1005.7 |
| 20260510021026 | 98 | 74 | 2.0 | 5.0 | 0.00 | 0.00 | 0.00 | 14 | 1005.7 |
| 20260510020520 | 98 | 89 | 3.0 | 5.0 | 0.00 | 0.00 | 0.00 | 14 | 1005.7 |
| 20260510020016 | 99 | 87 | 3.0 | 6.0 | 0.00 | 0.00 | 0.00 | 13 | 1005.5 |
| 20260510015512 | 100 | 77 | 3.0 | 6.0 | 0.00 | 0.00 | 0.00 | 14 | 1005.5 |
| 20260510015008 | 100 | 80 | 6.0 | 7.0 | 0.00 | 0.00 | 0.00 | 13 | 1005.7 |
| 20260510014505 | 101 | 88 | 2.0 | 6.0 | 0.00 | 0.00 | 0.00 | 13 | 1005.3 |
| 20260510014002 | 101 | 88 | 5.0 | 7.0 | 0.00 | 0.00 | 0.00 | 13 | 1005.4 |
| 20260510013456 | 101 | 90 | 2.0 | 6.0 | 0.00 | 0.00 | 0.00 | 12 | 1005.6 |
| 20260510012952 | 101 | 58 | 2.0 | 6.0 | 0.00 | 0.00 | 0.00 | 12 | 1005.5 |
| 20260510012447 | 101 | 77 | 2.0 | 6.0 | 0.00 | 0.00 | 0.00 | 12 | 1005.5 |
| 20260510011942 | 102 | 70 | 2.0 | 7.0 | 0.00 | 0.00 | 0.00 | 12 | 1005.5 |
| 20260510011437 | 103 | 97 | 5.0 | 6.0 | 0.00 | 0.00 | 0.00 | 12 | 1005.2 |
| 20260510010934 | 103 | 111 | 3.0 | 7.0 | 0.00 | 0.00 | 0.00 | 12 | 1005.6 |
| 20260510010431 | 104 | 94 | 3.0 | 9.0 | 0.00 | 0.00 | 0.00 | 12 | 1005.4 |
| 20260510005928 | 104 | 68 | 2.0 | 6.0 | 0.00 | 0.00 | 0.00 | 12 | 1005.5 |
| 20260510005424 | 104 | 103 | 3.0 | 6.0 | 0.00 | 0.00 | 0.00 | 12 | 1005.6 |
| 20260510004921 | 105 | 86 | 2.0 | 6.0 | 0.00 | 0.00 | 0.00 | 12 | 1005.3 |
| 20260510004419 | 105 | 95 | 4.0 | 6.0 | 0.00 | 0.00 | 0.00 | 12 | 1005.5 |
| 20260510003916 | 105 | 102 | 4.0 | 12.0 | 0.00 | 0.00 | 0.00 | 12 | 1005.3 |
| 20260510003414 | 105 | 80 | 4.0 | 5.0 | 0.00 | 0.00 | 0.00 | 12 | 1005.4 |
| 20260510002912 | 105 | 77 | 5.0 | 7.0 | 0.00 | 0.00 | 0.00 | 12 | 1005.5 |
| 20260510002410 | 105 | 101 | 4.0 | 7.0 | 0.00 | 0.00 | 0.00 | 12 | 1005.4 |
| 20260510001906 | 106 | 98 | 5.0 | 7.0 | 0.00 | 0.00 | 0.00 | 12 | 1005.3 |
| 20260510001404 | 105 | 116 | 3.0 | 5.0 | 0.00 | 0.00 | 0.00 | 12 | 1005.5 |
| 20260510000900 | 105 | 129 | 4.0 | 9.0 | 0.00 | 0.00 | 0.00 | 12 | 1005.6 |
| 20260510000357 | 105 | 101 | 4.0 | 6.0 | 0.00 | 0.00 | 0.00 | 12 | 1005.7 |
| 20260509235853 | 105 | 68 | 4.0 | 8.0 | 0.00 | 0.00 | 0.00 | 12 | 1005.8 |
| 20260509235350 | 106 | 85 | 5.0 | 7.0 | 0.00 | 0.00 | 0.00 | 12 | 1005.9 |
| 20260509234846 | 106 | 102 | 4.0 | 9.0 | 0.00 | 0.00 | 0.00 | 13 | 1005.6 |
| 20260509234343 | 106 | 129 | 3.0 | 4.0 | 0.00 | 0.00 | 0.00 | 12 | 1006.0 |
| 20260509233842 | 106 | 61 | 2.0 | 5.0 | 0.00 | 0.00 | 0.00 | 12 | 1006.0 |
| 20260509233339 | 106 | 73 | 4.0 | 7.0 | 0.00 | 0.00 | 0.00 | 12 | 1005.8 |
| 20260509232834 | 107 | 102 | 2.0 | 5.0 | 0.00 | 0.00 | 0.00 | 12 | 1005.8 |
| 20260509232333 | 105 | 88 | 4.0 | 8.0 | 0.00 | 0.00 | 0.00 | 12 | 1005.8 |
| 20260509231828 | 106 | 96 | 3.0 | 7.0 | 0.00 | 0.00 | 0.00 | 12 | 1006.0 |
| 20260509231325 | 106 | 74 | 3.0 | 8.0 | 0.00 | 0.00 | 0.00 | 13 | 1006.1 |
| 20260509230823 | 106 | 80 | 4.0 | 7.0 | 0.00 | 0.00 | 0.00 | 12 | 1005.9 |
| 20260509230320 | 105 | 82 | 5.0 | 5.0 | 0.00 | 0.00 | 0.00 | 13 | 1006.0 |
| 20260509225815 | 105 | 100 | 5.0 | 7.0 | 0.00 | 0.00 | 0.00 | 12 | 1006.3 |
| 20260509225312 | 105 | 69 | 2.0 | 6.0 | 0.00 | 0.00 | 0.00 | 12 | 1006.2 |
| 20260509224808 | 106 | 79 | 2.0 | 6.0 | 0.00 | 0.00 | 0.00 | 13 | 1006.2 |
| 20260509224305 | 107 | 81 | 3.0 | 4.0 | 0.00 | 0.00 | 0.00 | 12 | 1006.2 |
| 20260509223801 | 107 | 101 | 2.0 | 3.0 | 0.00 | 0.00 | 0.00 | 12 | 1006.3 |
| 20260509223258 | 105 | 136 | 3.0 | 7.0 | 0.00 | 0.00 | 0.00 | 13 | 1006.2 |
| 20260509222754 | 105 | 80 | 2.0 | 6.0 | 0.00 | 0.00 | 0.00 | 13 | 1006.3 |
| 20260509222244 | 105 | 89 | 5.0 | 7.0 | 0.00 | 0.00 | 0.00 | 13 | 1006.3 |
| 20260509221740 | 105 | 99 | 3.0 | 4.0 | 0.00 | 0.00 | 0.00 | 12 | 1006.4 |
| 20260509221237 | 104 | 81 | 5.0 | 5.0 | 0.00 | 0.00 | 0.00 | 13 | 1006.5 |
| 20260509220733 | 105 | 345 | 3.0 | 4.0 | 0.00 | 0.00 | 0.00 | 13 | 1006.6 |
| 20260509220229 | 106 | 97 | 6.0 | 9.0 | 0.00 | 0.00 | 0.00 | 13 | 1006.7 |
| 20260509215725 | 106 | 109 | 2.0 | 5.0 | 0.00 | 0.00 | 0.00 | 12 | 1006.6 |
| 20260509215222 | 105 | 72 | 1.0 | 4.0 | 0.00 | 0.00 | 0.00 | 12 | 1006.9 |
| 20260509214719 | 105 | 110 | 4.0 | 9.0 | 0.00 | 0.00 | 0.00 | 12 | 1007.0 |
| 20260509214216 | 105 | 54 | 2.0 | 5.0 | 0.00 | 0.00 | 0.00 | 13 | 1007.0 |
| 20260509213713 | 104 | 76 | 5.0 | 6.0 | 0.00 | 0.00 | 0.00 | 13 | 1007.2 |
| 20260509213208 | 105 | 134 | 5.0 | 8.0 | 0.00 | 0.00 | 0.00 | 13 | 1007.3 |
| 20260509212706 | 104 | 93 | 6.0 | 6.0 | 0.00 | 0.00 | 0.00 | 12 | 1007.3 |
| 20260509212203 | 104 | 98 | 4.0 | 6.0 | 0.00 | 0.00 | 0.00 | 13 | 1007.5 |
| 20260509211659 | 104 | 87 | 3.0 | 8.0 | 0.00 | 0.00 | 0.00 | 13 | 1007.4 |
| 20260509211155 | 104 | 75 | 4.0 | 7.0 | 0.00 | 0.00 | 0.00 | 13 | 1007.6 |
| 20260509210652 | 103 | 97 | 2.0 | 5.0 | 0.00 | 0.00 | 0.00 | 12 | 1007.9 |
| 20260509210149 | 103 | 61 | 2.0 | 5.0 | 0.00 | 0.00 | 0.00 | 13 | 1008.1 |
| 20260509205645 | 102 | 87 | 5.0 | 7.0 | 0.00 | 0.00 | 0.00 | 13 | 1007.9 |
| 20260509205144 | 102 | 107 | 1.0 | 7.0 | 0.00 | 0.00 | 0.00 | 13 | 1008.1 |
| 20260509204640 | 103 | 93 | 3.0 | 9.0 | 0.00 | 0.00 | 0.00 | 13 | 1008.1 |
| 20260509204137 | 102 | 120 | 5.0 | 8.0 | 0.00 | 0.00 | 0.00 | 13 | 1008.0 |
| 20260509203633 | 102 | 98 | 4.0 | 8.0 | 0.00 | 0.00 | 0.00 | 14 | 1008.2 |
| 20260509203131 | 102 | 96 | 4.0 | 6.0 | 0.00 | 0.00 | 0.00 | 14 | 1008.4 |
| 20260509202626 | 102 | 90 | 5.0 | 6.0 | 0.00 | 0.00 | 0.00 | 13 | 1008.6 |
| 20260509202121 | 102 | 83 | 3.0 | 3.0 | 0.00 | 0.00 | 0.00 | 14 | 1008.6 |
| 20260509201616 | 101 | 86 | 2.0 | 5.0 | 0.00 | 0.00 | 0.00 | 14 | 1008.5 |
| 20260509201114 | 100 | 107 | 1.0 | 4.0 | 0.00 | 0.00 | 0.00 | 16 | 1008.6 |
| 20260509200609 | 99 | 39 | 1.0 | 5.0 | 0.00 | 0.00 | 0.00 | 15 | 1008.8 |
| 20260509200105 | 100 | 116 | 1.0 | 10.0 | 0.00 | 0.00 | 0.00 | 15 | 1009.0 |
| 20260509195601 | 100 | 98 | 3.0 | 5.0 | 0.00 | 0.00 | 0.00 | 16 | 1009.0 |
| 20260509195055 | 99 | 132 | 1.0 | 2.0 | 0.00 | 0.00 | 0.00 | 17 | 1009.0 |
| 20260509194555 | 99 | 108 | 3.0 | 5.0 | 0.00 | 0.00 | 0.00 | 16 | 1009.1 |
| 20260509194053 | 98 | 337 | 0.0 | 3.0 | 0.00 | 0.00 | 0.00 | 17 | 1009.1 |
| 20260509193548 | 98 | 104 | 1.0 | 6.0 | 0.00 | 0.00 | 0.00 | 15 | 1009.5 |
| 20260509193045 | 98 | 103 | 5.0 | 5.0 | 0.00 | 0.00 | 0.00 | 16 | 1009.2 |
| 20260509192542 | 98 | 137 | 3.0 | 8.0 | 0.00 | 0.00 | 0.00 | 16 | 1009.4 |
| 20260509192037 | 99 | 87 | 3.0 | 7.0 | 0.00 | 0.00 | 0.00 | 15 | 1009.4 |
| 20260509191531 | 98 | 68 | 0.0 | 2.0 | 0.00 | 0.00 | 0.00 | 17 | 1009.5 |
| 20260509191027 | 99 | 324 | 0.0 | 2.0 | 0.00 | 0.00 | 0.00 | 16 | 1009.6 |
| 20260509190524 | 99 | 79 | 1.0 | 2.0 | 0.00 | 0.00 | 0.00 | 16 | 1009.6 |
| 20260509190022 | 98 | 75 | 0.0 | 2.0 | 0.00 | 0.00 | 0.00 | 17 | 1009.8 |
| 20260509185520 | 98 | 90 | 1.0 | 3.0 | 0.00 | 0.00 | 0.00 | 18 | 1009.9 |
| 20260509185016 | 98 | 92 | 2.0 | 3.0 | 0.00 | 0.00 | 0.00 | 16 | 1009.7 |
| 20260509184514 | 98 | 75 | 0.0 | 2.0 | 0.00 | 0.00 | 0.00 | 17 | 1010.0 |
| 20260509184010 | 97 | 98 | 2.0 | 2.0 | 0.00 | 0.00 | 0.00 | 17 | 1009.9 |
| 20260509183505 | 97 | 70 | 1.0 | 5.0 | 0.00 | 0.00 | 0.00 | 18 | 1009.9 |
| 20260509183001 | 97 | 73 | 2.0 | 3.0 | 0.00 | 0.00 | 0.00 | 18 | 1010.0 |
| 20260509182458 | 97 | 94 | 1.0 | 2.0 | 0.00 | 0.00 | 0.00 | 17 | 1010.1 |
| 20260509181955 | 98 | 121 | 0.0 | 2.0 | 0.00 | 0.00 | 0.00 | 18 | 1010.3 |
| 20260509181453 | 98 | 92 | 1.0 | 2.0 | 0.00 | 0.00 | 0.00 | 17 | 1010.5 |
| 20260509180950 | 97 | 74 | 1.0 | 2.0 | 0.00 | 0.00 | 0.00 | 17 | 1010.2 |
| 20260509180445 | 96 | 96 | 0.0 | 3.0 | 0.00 | 0.00 | 0.00 | 21 | 1010.6 |
| 20260509175943 | 96 | 156 | 0.0 | 2.0 | 0.00 | 0.00 | 0.00 | 18 | 1010.4 |
| 20260509175439 | 95 | 98 | 3.0 | 4.0 | 0.00 | 0.00 | 0.00 | 17 | 1010.5 |
| 20260509174936 | 95 | 104 | 0.0 | 2.0 | 0.00 | 0.00 | 0.00 | 18 | 1010.4 |
| 20260509174432 | 95 | 172 | 2.0 | 2.0 | 0.00 | 0.00 | 0.00 | 18 | 1010.5 |
| 20260509173927 | 95 | 342 | 0.0 | 2.0 | 0.00 | 0.00 | 0.00 | 18 | 1010.3 |
| 20260509173427 | 94 | 115 | 3.0 | 5.0 | 0.00 | 0.00 | 0.00 | 18 | 1010.5 |
| 20260509172924 | 92 | 101 | 2.0 | 5.0 | 0.00 | 0.00 | 0.00 | 19 | 1010.7 |
| 20260509172421 | 94 | 78 | 1.0 | 2.0 | 0.00 | 0.00 | 0.00 | 19 | 1010.4 |
| 20260509171916 | 95 | 187 | 0.0 | 2.0 | 0.00 | 0.00 | 0.00 | 18 | 1010.5 |